owner,sensor,date,latitude,longitude,vertical_datum,mass_concentration_of_oxygen_in_sea_water,qcFlag 
DISL,ioos:station:DISL:MBLA:1,2010-09-01T00:02:00Z,30.4367,-88.0117,3.007,8.5,1111122 
DISL,ioos:station:DISL:MBLA:1,2010-09-01T00:05:00Z,30.4367,-88.0117,2.49,8.53,1111122 
DISL,ioos:station:DISL:MBLA:1,2010-09-01T00:07:00Z,30.4367,-88.0117,1.981,8.64,1111122 
DISL,ioos:station:DISL:MBLA:1,2010-09-01T00:10:00Z,30.4367,-88.0117,1.434,8.63,1111122 
DISL,ioos:station:DISL:MBLA:1,2010-09-01T00:12:00Z,30.4367,-88.0117,0.957,8.56,1111122 
DISL,ioos:station:DISL:MBLA:1,2010-09-01T00:14:00Z,30.4367,-88.0117,0.51,8.61,1111122 
DISL,ioos:station:DISL:MBLA:1,2010-09-01T01:02:00Z,30.4367,-88.0117,3.013,8.38,1111122 
DISL,ioos:station:DISL:MBLA:1,2010-09-01T01:05:00Z,30.4367,-88.0117,2.509,8.44,1111122 
DISL,ioos:station:DISL:MBLA:1,2010-09-01T01:07:00Z,30.4367,-88.0117,2.007,8.55,1111122 
DISL,ioos:station:DISL:MBLA:1,2010-09-01T01:10:00Z,30.4367,-88.0117,1.472,8.54,1111122 
DISL,ioos:station:DISL:MBLA:1,2010-09-01T01:12:00Z,30.4367,-88.0117,0.892,8.47,1111122 
DISL,ioos:station:DISL:MBLA:1,2010-09-01T01:14:00Z,30.4367,-88.0117,0.472,8.47,1111122 
DISL,ioos:station:DISL:MBLA:1,2010-09-01T02:02:00Z,30.4367,-88.0117,2.995,8.08,1111122 
DISL,ioos:station:DISL:MBLA:1,2010-09-01T02:05:00Z,30.4367,-88.0117,2.489,7.75,1111122 
DISL,ioos:station:DISL:MBLA:1,2010-09-01T02:07:00Z,30.4367,-88.0117,1.998,8.25,1111122 
DISL,ioos:station:DISL:MBLA:1,2010-09-01T02:10:00Z,30.4367,-88.0117,1.456,8.28,1111122 
DISL,ioos:station:DISL:MBLA:1,2010-09-01T02:12:00Z,30.4367,-88.0117,0.99,8.16,1111122 
DISL,ioos:station:DISL:MBLA:1,2010-09-01T02:14:00Z,30.4367,-88.0117,0.448,8.29,1111122 
DISL,ioos:station:DISL:MBLA:1,2010-09-01T03:02:00Z,30.4367,-88.0117,2.986,7.64,1111122 
DISL,ioos:station:DISL:MBLA:1,2010-09-01T03:05:00Z,30.4367,-88.0117,2.477,8.24,1111122 
DISL,ioos:station:DISL:MBLA:1,2010-09-01T03:07:00Z,30.4367,-88.0117,1.994,8.32,1111122 
DISL,ioos:station:DISL:MBLA:1,2010-09-01T03:10:00Z,30.4367,-88.0117,1.518,8.39,1111122 
DISL,ioos:station:DISL:MBLA:1,2010-09-01T03:12:00Z,30.4367,-88.0117,0.979,8.28,1111122 
DISL,ioos:station:DISL:MBLA:1,2010-09-01T03:14:00Z,30.4367,-88.0117,0.511,8.31,1111122 
DISL,ioos:station:DISL:MBLA:1,2010-09-01T04:02:00Z,30.4367,-88.0117,2.928,7.97,1111122 
DISL,ioos:station:DISL:MBLA:1,2010-09-01T04:05:00Z,30.4367,-88.0117,2.493,7.99,1111122 
DISL,ioos:station:DISL:MBLA:1,2010-09-01T04:07:00Z,30.4367,-88.0117,1.988,8.02,1111122 
DISL,ioos:station:DISL:MBLA:1,2010-09-01T04:10:00Z,30.4367,-88.0117,1.44,7.93,1111122 
DISL,ioos:station:DISL:MBLA:1,2010-09-01T04:12:00Z,30.4367,-88.0117,0.988,7.73,1111122 
DISL,ioos:station:DISL:MBLA:1,2010-09-01T04:14:00Z,30.4367,-88.0117,0.452,7.88,1111122 
DISL,ioos:station:DISL:MBLA:1,2010-09-01T05:02:00Z,30.4367,-88.0117,2.975,7.67,1111122 
DISL,ioos:station:DISL:MBLA:1,2010-09-01T05:05:00Z,30.4367,-88.0117,2.488,7.69,1111122 
DISL,ioos:station:DISL:MBLA:1,2010-09-01T05:07:00Z,30.4367,-88.0117,1.979,7.68,1111122 
DISL,ioos:station:DISL:MBLA:1,2010-09-01T05:10:00Z,30.4367,-88.0117,1.445,7.58,1111122 
DISL,ioos:station:DISL:MBLA:1,2010-09-01T05:12:00Z,30.4367,-88.0117,0.976,7.4,1111122 
DISL,ioos:station:DISL:MBLA:1,2010-09-01T05:14:00Z,30.4367,-88.0117,0.443,7.45,1111122 
DISL,ioos:station:DISL:MBLA:1,2010-09-01T06:02:00Z,30.4367,-88.0117,2.967,7.31,1111122 
DISL,ioos:station:DISL:MBLA:1,2010-09-01T06:05:00Z,30.4367,-88.0117,2.529,7.36,1111122 
DISL,ioos:station:DISL:MBLA:1,2010-09-01T06:07:00Z,30.4367,-88.0117,2.025,7.53,1111122 
DISL,ioos:station:DISL:MBLA:1,2010-09-01T06:10:00Z,30.4367,-88.0117,1.491,7.51,1111122 
DISL,ioos:station:DISL:MBLA:1,2010-09-01T06:12:00Z,30.4367,-88.0117,0.963,7.44,1111122 
DISL,ioos:station:DISL:MBLA:1,2010-09-01T06:14:00Z,30.4367,-88.0117,0.494,7.52,1111122 
DISL,ioos:station:DISL:MBLA:1,2010-09-01T07:02:00Z,30.4367,-88.0117,2.939,6.96,1111122 
DISL,ioos:station:DISL:MBLA:1,2010-09-01T07:05:00Z,30.4367,-88.0117,2.512,7.26,1111122 
DISL,ioos:station:DISL:MBLA:1,2010-09-01T07:07:00Z,30.4367,-88.0117,2.0,7.39,1111122 
DISL,ioos:station:DISL:MBLA:1,2010-09-01T07:10:00Z,30.4367,-88.0117,1.462,7.42,1111122 
DISL,ioos:station:DISL:MBLA:1,2010-09-01T07:12:00Z,30.4367,-88.0117,0.999,7.36,1111122 
DISL,ioos:station:DISL:MBLA:1,2010-09-01T07:14:00Z,30.4367,-88.0117,0.379,7.47,1111122 
DISL,ioos:station:DISL:MBLA:1,2010-09-01T08:02:00Z,30.4367,-88.0117,2.957,7.02,1111122 
DISL,ioos:station:DISL:MBLA:1,2010-09-01T08:05:00Z,30.4367,-88.0117,2.531,7.24,1111122 
DISL,ioos:station:DISL:MBLA:1,2010-09-01T08:07:00Z,30.4367,-88.0117,2.018,7.32,1111122 
DISL,ioos:station:DISL:MBLA:1,2010-09-01T08:10:00Z,30.4367,-88.0117,1.484,7.29,1111122 
DISL,ioos:station:DISL:MBLA:1,2010-09-01T08:12:00Z,30.4367,-88.0117,0.958,7.28,1111122 
DISL,ioos:station:DISL:MBLA:1,2010-09-01T08:14:00Z,30.4367,-88.0117,0.476,7.34,1111122 
DISL,ioos:station:DISL:MBLA:1,2010-09-01T09:02:00Z,30.4367,-88.0117,2.942,7.11,1111122 
DISL,ioos:station:DISL:MBLA:1,2010-09-01T09:05:00Z,30.4367,-88.0117,2.517,6.94,1111122 
DISL,ioos:station:DISL:MBLA:1,2010-09-01T09:07:00Z,30.4367,-88.0117,2.009,7.15,1111122 
DISL,ioos:station:DISL:MBLA:1,2010-09-01T09:10:00Z,30.4367,-88.0117,1.482,7.2,1111122 
DISL,ioos:station:DISL:MBLA:1,2010-09-01T09:12:00Z,30.4367,-88.0117,0.955,7.04,1111122 
DISL,ioos:station:DISL:MBLA:1,2010-09-01T09:14:00Z,30.4367,-88.0117,0.49,7.17,1111122 
DISL,ioos:station:DISL:MBLA:1,2010-09-01T10:02:00Z,30.4367,-88.0117,2.928,7.1,1111122 
DISL,ioos:station:DISL:MBLA:1,2010-09-01T10:05:00Z,30.4367,-88.0117,2.502,7.06,1111122 
DISL,ioos:station:DISL:MBLA:1,2010-09-01T10:07:00Z,30.4367,-88.0117,1.99,7.05,1111122 
DISL,ioos:station:DISL:MBLA:1,2010-09-01T10:10:00Z,30.4367,-88.0117,1.474,7.05,1111122 
DISL,ioos:station:DISL:MBLA:1,2010-09-01T10:12:00Z,30.4367,-88.0117,0.871,7.01,1111122 
DISL,ioos:station:DISL:MBLA:1,2010-09-01T10:15:00Z,30.4367,-88.0117,0.512,7.06,1111122 
DISL,ioos:station:DISL:MBLA:1,2010-09-01T11:02:00Z,30.4367,-88.0117,2.905,7.0,1111122 
DISL,ioos:station:DISL:MBLA:1,2010-09-01T11:05:00Z,30.4367,-88.0117,2.475,6.94,1111122 
DISL,ioos:station:DISL:MBLA:1,2010-09-01T11:07:00Z,30.4367,-88.0117,2.033,6.95,1111122 
DISL,ioos:station:DISL:MBLA:1,2010-09-01T11:10:00Z,30.4367,-88.0117,1.529,6.92,1111122 
DISL,ioos:station:DISL:MBLA:1,2010-09-01T11:12:00Z,30.4367,-88.0117,0.997,6.88,1111122 
DISL,ioos:station:DISL:MBLA:1,2010-09-01T11:15:00Z,30.4367,-88.0117,0.394,6.98,1111122 
DISL,ioos:station:DISL:MBLA:1,2010-09-01T12:02:00Z,30.4367,-88.0117,2.983,6.86,1111122 
DISL,ioos:station:DISL:MBLA:1,2010-09-01T12:05:00Z,30.4367,-88.0117,2.5,6.96,1111122 
DISL,ioos:station:DISL:MBLA:1,2010-09-01T12:07:00Z,30.4367,-88.0117,1.935,6.99,1111122 
DISL,ioos:station:DISL:MBLA:1,2010-09-01T12:10:00Z,30.4367,-88.0117,1.474,7.03,1111122 
DISL,ioos:station:DISL:MBLA:1,2010-09-01T12:12:00Z,30.4367,-88.0117,0.921,6.96,1111122 
DISL,ioos:station:DISL:MBLA:1,2010-09-01T12:14:00Z,30.4367,-88.0117,0.458,7.0,1111122 
DISL,ioos:station:DISL:MBLA:1,2010-09-01T13:02:00Z,30.4367,-88.0117,2.951,6.86,1111122 
DISL,ioos:station:DISL:MBLA:1,2010-09-01T13:05:00Z,30.4367,-88.0117,2.519,7.07,1111122 
DISL,ioos:station:DISL:MBLA:1,2010-09-01T13:07:00Z,30.4367,-88.0117,2.019,7.02,1111122 
DISL,ioos:station:DISL:MBLA:1,2010-09-01T13:10:00Z,30.4367,-88.0117,1.424,7.07,1111122 
DISL,ioos:station:DISL:MBLA:1,2010-09-01T13:12:00Z,30.4367,-88.0117,0.965,7.07,1111122 
DISL,ioos:station:DISL:MBLA:1,2010-09-01T13:15:00Z,30.4367,-88.0117,0.51,7.06,1111122 
DISL,ioos:station:DISL:MBLA:1,2010-09-01T14:02:00Z,30.4367,-88.0117,2.973,6.86,1111122 
DISL,ioos:station:DISL:MBLA:1,2010-09-01T14:05:00Z,30.4367,-88.0117,2.47,7.19,1111122 
DISL,ioos:station:DISL:MBLA:1,2010-09-01T14:07:00Z,30.4367,-88.0117,2.023,7.13,1111122 
DISL,ioos:station:DISL:MBLA:1,2010-09-01T14:10:00Z,30.4367,-88.0117,1.481,7.23,1111122 
DISL,ioos:station:DISL:MBLA:1,2010-09-01T14:12:00Z,30.4367,-88.0117,0.948,7.22,1111122 
DISL,ioos:station:DISL:MBLA:1,2010-09-01T14:15:00Z,30.4367,-88.0117,0.37,7.28,1111122 
DISL,ioos:station:DISL:MBLA:1,2010-09-01T15:02:00Z,30.4367,-88.0117,2.974,6.91,1111122 
DISL,ioos:station:DISL:MBLA:1,2010-09-01T15:05:00Z,30.4367,-88.0117,2.444,7.51,1111122 
DISL,ioos:station:DISL:MBLA:1,2010-09-01T15:07:00Z,30.4367,-88.0117,1.972,7.49,1111122 
DISL,ioos:station:DISL:MBLA:1,2010-09-01T15:10:00Z,30.4367,-88.0117,1.399,7.67,1111122 
DISL,ioos:station:DISL:MBLA:1,2010-09-01T15:12:00Z,30.4367,-88.0117,0.948,7.77,1111122 
DISL,ioos:station:DISL:MBLA:1,2010-09-01T15:15:00Z,30.4367,-88.0117,0.548,7.82,1111122 
DISL,ioos:station:DISL:MBLA:1,2010-09-01T16:03:00Z,30.4367,-88.0117,2.987,7.19,1111122 
DISL,ioos:station:DISL:MBLA:1,2010-09-01T16:05:00Z,30.4367,-88.0117,2.425,7.73,1111122 
DISL,ioos:station:DISL:MBLA:1,2010-09-01T16:07:00Z,30.4367,-88.0117,1.941,7.82,1111122 
DISL,ioos:station:DISL:MBLA:1,2010-09-01T16:10:00Z,30.4367,-88.0117,1.586,8.21,1111122 
DISL,ioos:station:DISL:MBLA:1,2010-09-01T16:12:00Z,30.4367,-88.0117,0.911,8.1,1111122 
DISL,ioos:station:DISL:MBLA:1,2010-09-01T16:15:00Z,30.4367,-88.0117,0.551,8.19,1111122 
DISL,ioos:station:DISL:MBLA:1,2010-09-01T17:02:00Z,30.4367,-88.0117,2.983,7.8,1111122 
DISL,ioos:station:DISL:MBLA:1,2010-09-01T17:05:00Z,30.4367,-88.0117,2.435,7.94,1111122 
DISL,ioos:station:DISL:MBLA:1,2010-09-01T17:07:00Z,30.4367,-88.0117,1.957,8.34,1111122 
DISL,ioos:station:DISL:MBLA:1,2010-09-01T17:10:00Z,30.4367,-88.0117,1.442,8.32,1111122 
DISL,ioos:station:DISL:MBLA:1,2010-09-01T17:12:00Z,30.4367,-88.0117,0.969,8.36,1111122 
DISL,ioos:station:DISL:MBLA:1,2010-09-01T17:15:00Z,30.4367,-88.0117,0.422,8.46,1111122 
DISL,ioos:station:DISL:MBLA:1,2010-09-01T18:02:00Z,30.4367,-88.0117,3.006,7.37,1111122 
DISL,ioos:station:DISL:MBLA:1,2010-09-01T18:05:00Z,30.4367,-88.0117,2.458,7.7,1111122 
DISL,ioos:station:DISL:MBLA:1,2010-09-01T18:07:00Z,30.4367,-88.0117,1.973,8.0,1111122 
DISL,ioos:station:DISL:MBLA:1,2010-09-01T18:10:00Z,30.4367,-88.0117,1.563,8.5,1111122 
DISL,ioos:station:DISL:MBLA:1,2010-09-01T18:12:00Z,30.4367,-88.0117,1.075,8.57,1111122 
DISL,ioos:station:DISL:MBLA:1,2010-09-01T18:15:00Z,30.4367,-88.0117,0.403,8.61,1111122 
DISL,ioos:station:DISL:MBLA:1,2010-09-01T19:02:00Z,30.4367,-88.0117,2.946,7.85,1111122 
DISL,ioos:station:DISL:MBLA:1,2010-09-01T19:05:00Z,30.4367,-88.0117,2.458,8.3,1111122 
DISL,ioos:station:DISL:MBLA:1,2010-09-01T19:07:00Z,30.4367,-88.0117,1.977,8.43,1111122 
DISL,ioos:station:DISL:MBLA:1,2010-09-01T19:10:00Z,30.4367,-88.0117,1.395,8.56,1111122 
DISL,ioos:station:DISL:MBLA:1,2010-09-01T19:13:00Z,30.4367,-88.0117,0.92,8.68,1111122 
DISL,ioos:station:DISL:MBLA:1,2010-09-01T19:15:00Z,30.4367,-88.0117,0.438,8.75,1111122 
DISL,ioos:station:DISL:MBLA:1,2010-09-01T20:02:00Z,30.4367,-88.0117,3.02,8.34,1111122 
DISL,ioos:station:DISL:MBLA:1,2010-09-01T20:05:00Z,30.4367,-88.0117,2.477,8.51,1111122 
DISL,ioos:station:DISL:MBLA:1,2010-09-01T20:07:00Z,30.4367,-88.0117,1.924,8.75,1111122 
DISL,ioos:station:DISL:MBLA:1,2010-09-01T20:10:00Z,30.4367,-88.0117,1.445,8.8,1111122 
DISL,ioos:station:DISL:MBLA:1,2010-09-01T20:12:00Z,30.4367,-88.0117,0.925,8.85,1111122 
DISL,ioos:station:DISL:MBLA:1,2010-09-01T20:14:00Z,30.4367,-88.0117,0.368,8.93,1111122 
DISL,ioos:station:DISL:MBLA:1,2010-09-01T21:02:00Z,30.4367,-88.0117,3.0,8.58,1111122 
DISL,ioos:station:DISL:MBLA:1,2010-09-01T21:05:00Z,30.4367,-88.0117,2.459,8.6,1111122 
DISL,ioos:station:DISL:MBLA:1,2010-09-01T21:07:00Z,30.4367,-88.0117,2.064,8.85,1111122 
DISL,ioos:station:DISL:MBLA:1,2010-09-01T21:10:00Z,30.4367,-88.0117,1.419,8.92,1111122 
DISL,ioos:station:DISL:MBLA:1,2010-09-01T21:12:00Z,30.4367,-88.0117,0.889,8.99,1111122 
DISL,ioos:station:DISL:MBLA:1,2010-09-01T21:15:00Z,30.4367,-88.0117,0.414,9.08,1111122 
DISL,ioos:station:DISL:MBLA:1,2010-09-01T22:02:00Z,30.4367,-88.0117,3.023,8.47,1111122 
DISL,ioos:station:DISL:MBLA:1,2010-09-01T22:05:00Z,30.4367,-88.0117,2.421,8.95,1111122 
DISL,ioos:station:DISL:MBLA:1,2010-09-01T22:07:00Z,30.4367,-88.0117,1.933,9.09,1111122 
DISL,ioos:station:DISL:MBLA:1,2010-09-01T22:10:00Z,30.4367,-88.0117,1.398,9.1,1111122 
DISL,ioos:station:DISL:MBLA:1,2010-09-01T22:12:00Z,30.4367,-88.0117,0.94,9.07,1111122 
DISL,ioos:station:DISL:MBLA:1,2010-09-01T22:15:00Z,30.4367,-88.0117,0.628,9.11,1111122 
DISL,ioos:station:DISL:MBLA:1,2010-09-01T23:02:00Z,30.4367,-88.0117,2.975,8.69,1111122 
DISL,ioos:station:DISL:MBLA:1,2010-09-01T23:05:00Z,30.4367,-88.0117,2.436,8.91,1111122 
DISL,ioos:station:DISL:MBLA:1,2010-09-01T23:07:00Z,30.4367,-88.0117,1.958,8.99,1111122 
DISL,ioos:station:DISL:MBLA:1,2010-09-01T23:10:00Z,30.4367,-88.0117,1.38,8.94,1111122 
DISL,ioos:station:DISL:MBLA:1,2010-09-01T23:12:00Z,30.4367,-88.0117,0.867,8.93,1111122 
DISL,ioos:station:DISL:MBLA:1,2010-09-01T23:15:00Z,30.4367,-88.0117,0.402,8.99,1111122 
DISL,ioos:station:DISL:MBLA:1,2010-09-02T00:02:00Z,30.4367,-88.0117,2.994,8.53,1111122 
DISL,ioos:station:DISL:MBLA:1,2010-09-02T00:05:00Z,30.4367,-88.0117,2.54,8.77,1111122 
DISL,ioos:station:DISL:MBLA:1,2010-09-02T00:07:00Z,30.4367,-88.0117,1.956,8.85,1111122 
DISL,ioos:station:DISL:MBLA:1,2010-09-02T00:10:00Z,30.4367,-88.0117,1.489,8.82,1111122 
DISL,ioos:station:DISL:MBLA:1,2010-09-02T00:12:00Z,30.4367,-88.0117,0.939,8.79,1111122 
DISL,ioos:station:DISL:MBLA:1,2010-09-02T00:14:00Z,30.4367,-88.0117,0.392,8.79,1111122 
DISL,ioos:station:DISL:MBLA:1,2010-09-02T01:02:00Z,30.4367,-88.0117,2.944,8.64,1111122 
DISL,ioos:station:DISL:MBLA:1,2010-09-02T01:05:00Z,30.4367,-88.0117,2.502,8.63,1111122 
DISL,ioos:station:DISL:MBLA:1,2010-09-02T01:07:00Z,30.4367,-88.0117,1.998,8.65,1111122 
DISL,ioos:station:DISL:MBLA:1,2010-09-02T01:10:00Z,30.4367,-88.0117,1.462,8.7,1111122 
DISL,ioos:station:DISL:MBLA:1,2010-09-02T01:12:00Z,30.4367,-88.0117,0.921,8.62,1111122 
DISL,ioos:station:DISL:MBLA:1,2010-09-02T01:14:00Z,30.4367,-88.0117,0.438,8.63,1111122 
DISL,ioos:station:DISL:MBLA:1,2010-09-02T02:02:00Z,30.4367,-88.0117,2.984,8.05,1111122 
DISL,ioos:station:DISL:MBLA:1,2010-09-02T02:05:00Z,30.4367,-88.0117,2.475,8.18,1111122 
DISL,ioos:station:DISL:MBLA:1,2010-09-02T02:07:00Z,30.4367,-88.0117,2.036,8.45,1111122 
DISL,ioos:station:DISL:MBLA:1,2010-09-02T02:10:00Z,30.4367,-88.0117,1.507,8.59,1111122 
DISL,ioos:station:DISL:MBLA:1,2010-09-02T02:12:00Z,30.4367,-88.0117,0.962,8.49,1111122 
DISL,ioos:station:DISL:MBLA:1,2010-09-02T02:14:00Z,30.4367,-88.0117,0.568,8.54,1111122 
DISL,ioos:station:DISL:MBLA:1,2010-09-02T03:02:00Z,30.4367,-88.0117,2.999,8.09,1111122 
DISL,ioos:station:DISL:MBLA:1,2010-09-02T03:05:00Z,30.4367,-88.0117,2.497,8.25,1111122 
DISL,ioos:station:DISL:MBLA:1,2010-09-02T03:07:00Z,30.4367,-88.0117,2.003,8.42,1111122 
DISL,ioos:station:DISL:MBLA:1,2010-09-02T03:10:00Z,30.4367,-88.0117,1.461,8.39,1111122 
DISL,ioos:station:DISL:MBLA:1,2010-09-02T03:12:00Z,30.4367,-88.0117,0.991,8.31,1111122 
DISL,ioos:station:DISL:MBLA:1,2010-09-02T03:14:00Z,30.4367,-88.0117,0.45,8.26,1111122 
DISL,ioos:station:DISL:MBLA:1,2010-09-02T04:02:00Z,30.4367,-88.0117,2.966,7.92,1111122 
DISL,ioos:station:DISL:MBLA:1,2010-09-02T04:05:00Z,30.4367,-88.0117,2.471,7.99,1111122 
DISL,ioos:station:DISL:MBLA:1,2010-09-02T04:07:00Z,30.4367,-88.0117,1.968,8.07,1111122 
DISL,ioos:station:DISL:MBLA:1,2010-09-02T04:10:00Z,30.4367,-88.0117,1.428,8.08,1111122 
DISL,ioos:station:DISL:MBLA:1,2010-09-02T04:12:00Z,30.4367,-88.0117,0.962,7.92,1111122 
DISL,ioos:station:DISL:MBLA:1,2010-09-02T04:14:00Z,30.4367,-88.0117,0.492,8.01,1111122 
DISL,ioos:station:DISL:MBLA:1,2010-09-02T05:02:00Z,30.4367,-88.0117,2.927,7.75,1111122 
DISL,ioos:station:DISL:MBLA:1,2010-09-02T05:05:00Z,30.4367,-88.0117,2.498,7.72,1111122 
DISL,ioos:station:DISL:MBLA:1,2010-09-02T05:07:00Z,30.4367,-88.0117,1.997,7.85,1111122 
DISL,ioos:station:DISL:MBLA:1,2010-09-02T05:10:00Z,30.4367,-88.0117,1.46,7.8,1111122 
DISL,ioos:station:DISL:MBLA:1,2010-09-02T05:12:00Z,30.4367,-88.0117,0.997,7.67,1111122 
DISL,ioos:station:DISL:MBLA:1,2010-09-02T05:14:00Z,30.4367,-88.0117,0.458,7.91,1111122 
DISL,ioos:station:DISL:MBLA:1,2010-09-02T06:02:00Z,30.4367,-88.0117,2.973,7.42,1111122 
DISL,ioos:station:DISL:MBLA:1,2010-09-02T06:05:00Z,30.4367,-88.0117,2.479,7.51,1111122 
DISL,ioos:station:DISL:MBLA:1,2010-09-02T06:07:00Z,30.4367,-88.0117,1.97,7.57,1111122 
DISL,ioos:station:DISL:MBLA:1,2010-09-02T06:10:00Z,30.4367,-88.0117,1.433,7.61,1111122 
DISL,ioos:station:DISL:MBLA:1,2010-09-02T06:12:00Z,30.4367,-88.0117,0.974,7.67,1111122 
DISL,ioos:station:DISL:MBLA:1,2010-09-02T06:14:00Z,30.4367,-88.0117,0.434,7.61,1111122 
DISL,ioos:station:DISL:MBLA:1,2010-09-02T07:02:00Z,30.4367,-88.0117,2.944,7.24,1111122 
DISL,ioos:station:DISL:MBLA:1,2010-09-02T07:05:00Z,30.4367,-88.0117,2.511,7.22,1111122 
DISL,ioos:station:DISL:MBLA:1,2010-09-02T07:07:00Z,30.4367,-88.0117,2.005,7.3,1111122 
DISL,ioos:station:DISL:MBLA:1,2010-09-02T07:10:00Z,30.4367,-88.0117,1.473,7.26,1111122 
DISL,ioos:station:DISL:MBLA:1,2010-09-02T07:12:00Z,30.4367,-88.0117,0.937,7.08,1111122 
DISL,ioos:station:DISL:MBLA:1,2010-09-02T07:14:00Z,30.4367,-88.0117,0.475,7.11,1111122 
DISL,ioos:station:DISL:MBLA:1,2010-09-02T08:02:00Z,30.4367,-88.0117,2.961,6.83,1111122 
DISL,ioos:station:DISL:MBLA:1,2010-09-02T08:05:00Z,30.4367,-88.0117,2.533,7.11,1111122 
DISL,ioos:station:DISL:MBLA:1,2010-09-02T08:07:00Z,30.4367,-88.0117,2.029,7.17,1111122 
DISL,ioos:station:DISL:MBLA:1,2010-09-02T08:10:00Z,30.4367,-88.0117,1.503,7.16,1111122 
DISL,ioos:station:DISL:MBLA:1,2010-09-02T08:12:00Z,30.4367,-88.0117,0.976,6.96,1111122 
DISL,ioos:station:DISL:MBLA:1,2010-09-02T08:15:00Z,30.4367,-88.0117,0.4,7.04,1111122 
DISL,ioos:station:DISL:MBLA:1,2010-09-02T09:02:00Z,30.4367,-88.0117,2.974,6.41,1111122 
DISL,ioos:station:DISL:MBLA:1,2010-09-02T09:05:00Z,30.4367,-88.0117,2.488,6.82,1111122 
DISL,ioos:station:DISL:MBLA:1,2010-09-02T09:07:00Z,30.4367,-88.0117,1.983,6.86,1111122 
DISL,ioos:station:DISL:MBLA:1,2010-09-02T09:10:00Z,30.4367,-88.0117,1.465,6.76,1111122 
DISL,ioos:station:DISL:MBLA:1,2010-09-02T09:12:00Z,30.4367,-88.0117,1.008,6.74,1111122 
DISL,ioos:station:DISL:MBLA:1,2010-09-02T09:14:00Z,30.4367,-88.0117,0.489,6.94,1111122 
DISL,ioos:station:DISL:MBLA:1,2010-09-02T10:02:00Z,30.4367,-88.0117,2.932,6.72,1111122 
DISL,ioos:station:DISL:MBLA:1,2010-09-02T10:05:00Z,30.4367,-88.0117,2.515,6.93,1111122 
DISL,ioos:station:DISL:MBLA:1,2010-09-02T10:07:00Z,30.4367,-88.0117,2.009,6.46,1111122 
DISL,ioos:station:DISL:MBLA:1,2010-09-02T10:10:00Z,30.4367,-88.0117,1.497,6.81,1111122 
DISL,ioos:station:DISL:MBLA:1,2010-09-02T10:12:00Z,30.4367,-88.0117,0.971,6.67,1111122 
DISL,ioos:station:DISL:MBLA:1,2010-09-02T10:14:00Z,30.4367,-88.0117,0.431,6.9,1111122 
DISL,ioos:station:DISL:MBLA:1,2010-09-02T11:02:00Z,30.4367,-88.0117,2.962,6.7,1111122 
DISL,ioos:station:DISL:MBLA:1,2010-09-02T11:05:00Z,30.4367,-88.0117,2.535,6.59,1111122 
DISL,ioos:station:DISL:MBLA:1,2010-09-02T11:07:00Z,30.4367,-88.0117,1.97,6.72,1111122 
DISL,ioos:station:DISL:MBLA:1,2010-09-02T11:10:00Z,30.4367,-88.0117,1.452,6.7,1111122 
DISL,ioos:station:DISL:MBLA:1,2010-09-02T11:12:00Z,30.4367,-88.0117,0.985,6.67,1111122 
DISL,ioos:station:DISL:MBLA:1,2010-09-02T11:14:00Z,30.4367,-88.0117,0.521,6.79,1111122 
DISL,ioos:station:DISL:MBLA:1,2010-09-02T12:02:00Z,30.4367,-88.0117,2.984,6.37,1111122 
DISL,ioos:station:DISL:MBLA:1,2010-09-02T12:05:00Z,30.4367,-88.0117,2.485,6.43,1111122 
DISL,ioos:station:DISL:MBLA:1,2010-09-02T12:07:00Z,30.4367,-88.0117,1.975,6.48,1111122 
DISL,ioos:station:DISL:MBLA:1,2010-09-02T12:10:00Z,30.4367,-88.0117,1.453,6.52,1111122 
DISL,ioos:station:DISL:MBLA:1,2010-09-02T12:12:00Z,30.4367,-88.0117,0.984,6.51,1111122 
DISL,ioos:station:DISL:MBLA:1,2010-09-02T12:14:00Z,30.4367,-88.0117,0.52,6.65,1111122 
DISL,ioos:station:DISL:MBLA:1,2010-09-02T13:02:00Z,30.4367,-88.0117,2.983,6.58,1111122 
DISL,ioos:station:DISL:MBLA:1,2010-09-02T13:05:00Z,30.4367,-88.0117,2.473,6.75,1111122 
DISL,ioos:station:DISL:MBLA:1,2010-09-02T13:07:00Z,30.4367,-88.0117,1.952,6.69,1111122 
DISL,ioos:station:DISL:MBLA:1,2010-09-02T13:10:00Z,30.4367,-88.0117,1.473,6.76,1111122 
DISL,ioos:station:DISL:MBLA:1,2010-09-02T13:12:00Z,30.4367,-88.0117,0.928,6.73,1111122 
DISL,ioos:station:DISL:MBLA:1,2010-09-02T13:15:00Z,30.4367,-88.0117,0.607,6.84,1111122 
DISL,ioos:station:DISL:MBLA:1,2010-09-02T14:02:00Z,30.4367,-88.0117,3.0,6.94,1111122 
DISL,ioos:station:DISL:MBLA:1,2010-09-02T14:05:00Z,30.4367,-88.0117,2.469,7.17,1111122 
DISL,ioos:station:DISL:MBLA:1,2010-09-02T14:07:00Z,30.4367,-88.0117,1.992,7.58,1111122 
DISL,ioos:station:DISL:MBLA:1,2010-09-02T14:10:00Z,30.4367,-88.0117,1.59,7.62,1111122 
DISL,ioos:station:DISL:MBLA:1,2010-09-02T14:12:00Z,30.4367,-88.0117,0.959,7.58,1111122 
DISL,ioos:station:DISL:MBLA:1,2010-09-02T14:15:00Z,30.4367,-88.0117,0.439,7.65,1111122 
DISL,ioos:station:DISL:MBLA:1,2010-09-02T15:02:00Z,30.4367,-88.0117,2.977,7.05,1111122 
DISL,ioos:station:DISL:MBLA:1,2010-09-02T15:05:00Z,30.4367,-88.0117,2.49,7.57,1111122 
DISL,ioos:station:DISL:MBLA:1,2010-09-02T15:07:00Z,30.4367,-88.0117,1.927,7.99,1111122 
DISL,ioos:station:DISL:MBLA:1,2010-09-02T15:10:00Z,30.4367,-88.0117,1.395,7.82,1111122 
DISL,ioos:station:DISL:MBLA:1,2010-09-02T15:12:00Z,30.4367,-88.0117,1.051,7.78,1111122 
DISL,ioos:station:DISL:MBLA:1,2010-09-02T15:15:00Z,30.4367,-88.0117,0.543,7.89,1111122 
DISL,ioos:station:DISL:MBLA:1,2010-09-02T16:02:00Z,30.4367,-88.0117,3.06,7.52,1111122 
DISL,ioos:station:DISL:MBLA:1,2010-09-02T16:05:00Z,30.4367,-88.0117,2.408,7.67,1111122 
DISL,ioos:station:DISL:MBLA:1,2010-09-02T16:07:00Z,30.4367,-88.0117,2.066,7.53,1111122 
DISL,ioos:station:DISL:MBLA:1,2010-09-02T16:10:00Z,30.4367,-88.0117,1.54,7.72,1111122 
DISL,ioos:station:DISL:MBLA:1,2010-09-02T16:13:00Z,30.4367,-88.0117,1.031,7.96,1111122 
DISL,ioos:station:DISL:MBLA:1,2010-09-02T16:15:00Z,30.4367,-88.0117,0.587,8.02,1111122 
DISL,ioos:station:DISL:MBLA:1,2010-09-02T17:02:00Z,30.4367,-88.0117,3.024,7.46,1111122 
DISL,ioos:station:DISL:MBLA:1,2010-09-02T17:05:00Z,30.4367,-88.0117,2.563,7.68,1111122 
DISL,ioos:station:DISL:MBLA:1,2010-09-02T17:07:00Z,30.4367,-88.0117,1.946,7.86,1111122 
DISL,ioos:station:DISL:MBLA:1,2010-09-02T17:10:00Z,30.4367,-88.0117,1.042,8.06,1111122 
DISL,ioos:station:DISL:MBLA:1,2010-09-02T17:12:00Z,30.4367,-88.0117,1.07,8.11,1111122 
DISL,ioos:station:DISL:MBLA:1,2010-09-02T17:15:00Z,30.4367,-88.0117,0.409,8.18,1111122 
DISL,ioos:station:DISL:MBLA:1,2010-09-02T18:02:00Z,30.4367,-88.0117,3.015,7.17,1111122 
DISL,ioos:station:DISL:MBLA:1,2010-09-02T18:05:00Z,30.4367,-88.0117,2.451,7.61,1111122 
DISL,ioos:station:DISL:MBLA:1,2010-09-02T18:07:00Z,30.4367,-88.0117,1.961,8.02,1111122 
DISL,ioos:station:DISL:MBLA:1,2010-09-02T18:10:00Z,30.4367,-88.0117,1.466,8.0,1111122 
DISL,ioos:station:DISL:MBLA:1,2010-09-02T18:12:00Z,30.4367,-88.0117,0.94,8.32,1111122 
DISL,ioos:station:DISL:MBLA:1,2010-09-02T18:14:00Z,30.4367,-88.0117,0.422,8.33,1111122 
DISL,ioos:station:DISL:MBLA:1,2010-09-02T19:02:00Z,30.4367,-88.0117,3.047,6.87,1111122 
DISL,ioos:station:DISL:MBLA:1,2010-09-02T19:05:00Z,30.4367,-88.0117,2.421,7.96,1111122 
DISL,ioos:station:DISL:MBLA:1,2010-09-02T19:07:00Z,30.4367,-88.0117,1.926,7.79,1111122 
DISL,ioos:station:DISL:MBLA:1,2010-09-02T19:10:00Z,30.4367,-88.0117,1.435,8.22,1111122 
DISL,ioos:station:DISL:MBLA:1,2010-09-02T19:12:00Z,30.4367,-88.0117,0.917,8.41,1111122 
DISL,ioos:station:DISL:MBLA:1,2010-09-02T19:14:00Z,30.4367,-88.0117,0.402,8.47,1111122 
DISL,ioos:station:DISL:MBLA:1,2010-09-02T20:02:00Z,30.4367,-88.0117,3.0,7.49,1111122 
DISL,ioos:station:DISL:MBLA:1,2010-09-02T20:05:00Z,30.4367,-88.0117,2.44,8.36,1111122 
DISL,ioos:station:DISL:MBLA:1,2010-09-02T20:07:00Z,30.4367,-88.0117,1.949,8.45,1111122 
DISL,ioos:station:DISL:MBLA:1,2010-09-02T20:10:00Z,30.4367,-88.0117,1.465,8.62,1111122 
DISL,ioos:station:DISL:MBLA:1,2010-09-02T20:12:00Z,30.4367,-88.0117,0.968,9.05,1111122 
DISL,ioos:station:DISL:MBLA:1,2010-09-02T20:14:00Z,30.4367,-88.0117,0.457,9.04,1111122 
DISL,ioos:station:DISL:MBLA:1,2010-09-02T21:02:00Z,30.4367,-88.0117,3.013,7.67,1111122 
DISL,ioos:station:DISL:MBLA:1,2010-09-02T21:05:00Z,30.4367,-88.0117,2.47,8.05,1111122 